Weather History for Price, UT

Change the Weather History Date:

Saturday, January 19, 2013

  Actual Average Record
Temperature  
Mean Temperature 18 °F -  
Max Temperature 30 °F 34 °F 53 °F (2000)
Min Temperature 6 °F 16 °F -11 °F (1984)
Degree Days  
Heating Degree Days 47    
Moisture  
Dew Point 6 °F    
Average Humidity 64    
Maximum Humidity 77    
Minimum Humidity 43    
Precipitation  
Precipitation 0.00 in - - ()
Sea Level Pressure  
Sea Level Pressure 30.61 in    
Wind  
Wind Speed 3 mph (NE)    
Max Wind Speed 8 mph    
Max Gust Speed -    
Visibility 10 miles    
Events      
Averages and records for this station are not official NWS values.
T = Trace of Precipitation, MM = Missing Value Source: NWS Daily Summary

Daily Weather History Graph

Daily Weather History Graph

Search for Another Location

Airport:

Trip Planner

Search our weather history database for the weather conditions in past years. The results will help you decide how hot, cold, wet, or windy it might be!

Date:

Astronomy

Jan. 19, 2013 Rise Set
Actual Time 7:39 AM MST 5:28 PM MST
Civil Twilight 7:10 AM MST 5:57 PM MST
Nautical Twilight 6:37 AM MST 6:30 PM MST
Astronomical Twilight 6:05 AM MST 7:02 PM MST
Moon 11:56 AM MST (1/19) 1:17 AM MST (1/19)
Length of Visible Light 10h 46m
Length of Day
9h 48m
First Quarter, 58% of the Moon is Illuminated
Jan 19
First Quarter
Jan 26
Full
Feb 3
Last Quarter
Feb 10
New
Feb 17
First Quarter

Hourly Weather History & Observations

Time (MST) Temp. Windchill Dew Point Humidity Pressure Visibility Wind Dir Wind Speed Gust Speed Precip Events Conditions
12:53 AM 9.0 °F -0.9 °F 1.0 °F 70% 30.56 in 10.0 mi East 5.8 mph - N/A   Clear
1:53 AM 10.0 °F 0.4 °F 1.9 °F 70% 30.56 in 10.0 mi North 5.8 mph - N/A   Clear
2:53 AM 12.0 °F - 3.9 °F 70% 30.56 in 10.0 mi Calm Calm - N/A   Clear
3:53 AM 10.9 °F -0.8 °F 3.9 °F 73% 30.56 in 10.0 mi East 8.1 mph - N/A   Clear
4:53 AM 14.0 °F 5.1 °F 6.1 °F 71% 30.56 in 10.0 mi ENE 5.8 mph - N/A   Clear
5:53 AM 7.0 °F 0.1 °F 1.0 °F 77% 30.63 in 10.0 mi NNE 3.5 mph - N/A   Clear
6:53 AM 10.9 °F 0.2 °F 3.0 °F 70% 30.64 in 10.0 mi ENE 6.9 mph - N/A   Clear
7:53 AM 6.1 °F - -0.0 °F 76% 30.70 in 10.0 mi Calm Calm - N/A   Clear
8:53 AM 17.1 °F 11.7 °F 5.0 °F 59% 30.69 in 10.0 mi North 3.5 mph - N/A   Clear
9:53 AM 25.0 °F - 9.0 °F 51% 30.68 in 10.0 mi Calm Calm - N/A   Clear
10:53 AM 25.0 °F - 9.0 °F 51% 30.67 in 10.0 mi Calm Calm - N/A   Clear
11:53 AM 19.0 °F 13.9 °F 8.1 °F 62% 30.68 in 10.0 mi WSW 3.5 mph - N/A   Clear
12:53 PM 27.0 °F - 10.0 °F 49% 30.63 in 10.0 mi Calm Calm - N/A   Clear
1:53 PM 28.4 °F - 10.4 °F 47% 30.40 in 10.0 mi Calm Calm - N/A   Clear
2:53 PM 28.9 °F - 12.0 °F 49% 30.59 in 10.0 mi Calm Calm - N/A   Clear
3:53 PM 28.9 °F - 10.0 °F 45% 30.59 in 10.0 mi Calm Calm - N/A   Clear
4:53 PM 30.9 °F - 10.9 °F 43% 30.55 in 10.0 mi Calm Calm - N/A   Clear
5:53 PM 21.9 °F - 10.9 °F 63% 30.60 in 10.0 mi Calm Calm - N/A   Clear
6:53 PM 15.1 °F - 7.0 °F 70% 30.62 in 10.0 mi Calm Calm - N/A   Clear
7:53 PM 12.9 °F - 6.1 °F 74% 30.65 in 10.0 mi Calm Calm - N/A   Clear
8:53 PM 10.9 °F 4.7 °F 3.9 °F 73% 30.63 in 10.0 mi NE 3.5 mph - N/A   Clear
9:53 PM 12.0 °F - 3.9 °F 70% 30.59 in 10.0 mi Calm Calm - N/A   Clear
10:53 PM 10.0 °F - 3.0 °F 73% 30.59 in 10.0 mi Calm Calm - N/A   Clear
11:53 PM 12.0 °F 4.1 °F 3.9 °F 70% 30.60 in 10.0 mi NE 4.6 mph - N/A   Clear